Colby, KS

12:00 PM CDT on August 27, 2016 (GMT -0500)
Shaltz

Weather History for KCBK - January, 2014

Change the Weather History Date:

Thursday, January 30, 2014

  Actual Average (KGLD) Record (KGLD)
Temperature  
Mean Temperature 37 °F 30 °F  
Max Temperature 50 °F 43 °F 72 °F (1986)
Min Temperature 24 °F 17 °F -15 °F (1918)
Degree Days  
Heating Degree Days 28 35  
Month to date heating degree days 1052  
Since 1 July heating degree days 3459  
Cooling Degree Days 0 0  
Month to date cooling degree days 0  
Year to date cooling degree days 0  
Moisture  
Dew Point 27 °F    
Average Humidity 69    
Maximum Humidity 100    
Minimum Humidity 42    
Precipitation  
Precipitation 0.00 in 0.02 in 0.35 in (1896)
Month to date precipitation 0.37  
Year to date precipitation 0.37  
Snow  
Snow 0.00 in 0.20 in - ()
Month to date snowfall 5.7  
Since 1 July snowfall 18.4  
Snow Depth -    
Sea Level Pressure  
Sea Level Pressure 29.69 in    
Wind  
Wind Speed 16 mph (NNE)    
Max Wind Speed 32 mph    
Max Gust Speed 41 mph    
Visibility 8 miles    
Events Snow    
T = Trace of Precipitation, MM = Missing Value Source: NWS Daily Summary

Daily Weather History Graph

Daily Weather History Graph

Search for Another Location

Airport or City:

Trip Planner

Search our weather history database for the weather conditions in past years. The results will help you decide how hot, cold, wet, or windy it might be!

Date:

Astronomy

Jan. 30, 2014 Rise Set
Actual Time 7:53 AM CST 6:02 PM CST
Civil Twilight 7:24 AM CST 6:30 PM CST
Nautical Twilight 6:52 AM CST 7:03 PM CST
Astronomical Twilight 6:20 AM CST 7:34 PM CST
Moon 7:20 AM CST (1/30) 6:16 PM CST (1/30)
Length of Visible Light 11h 06m
Length of Day
10h 09m
Waning Crescent, 0% of the Moon is Illuminated
Jan 30
Waning Crescent
Jan 30
New
Feb 6
First Quarter
Feb 14
Full
Feb 22
Last Quarter

Hourly Weather History & Observations

Time (CST) Temp. Windchill Dew Point Humidity Pressure Visibility Wind Dir Wind Speed Gust Speed Precip Events Conditions
12:15 AM 37.4 °F 28.5 °F 17.6 °F 45% 29.48 in 10.0 mi SSW 15.0 mph 19.6 mph N/A   Scattered Clouds
12:35 AM 39.2 °F 30.5 °F 17.6 °F 42% 29.47 in 10.0 mi SSW 16.1 mph 21.9 mph N/A   Mostly Cloudy
12:55 AM 39.2 °F 30.8 °F 17.6 °F 42% 29.45 in 10.0 mi SSW 15.0 mph - N/A   Mostly Cloudy
1:15 AM 39.2 °F 30.2 °F 17.6 °F 42% 29.43 in 10.0 mi SSW 17.3 mph - N/A   Scattered Clouds
1:35 AM 39.2 °F 30.5 °F 17.6 °F 42% 29.42 in 10.0 mi SSW 16.1 mph 21.9 mph N/A   Clear
1:55 AM 39.2 °F 30.8 °F 17.6 °F 42% 29.42 in 10.0 mi SSW 15.0 mph - N/A   Clear
2:15 AM 39.2 °F 32.5 °F 19.4 °F 45% 29.42 in 10.0 mi SW 10.4 mph - N/A   Clear
2:35 AM 39.2 °F 32.5 °F 19.4 °F 45% 29.43 in 10.0 mi SW 10.4 mph - N/A   Clear
2:55 AM 39.2 °F 31.6 °F 19.4 °F 45% 29.46 in 10.0 mi WSW 12.7 mph - N/A   Mostly Cloudy
3:15 AM 39.2 °F 33.6 °F 21.2 °F 49% 29.45 in 10.0 mi WSW 8.1 mph - N/A   Overcast
3:35 AM 41.0 °F 35.8 °F 23.0 °F 49% 29.45 in 10.0 mi West 8.1 mph - N/A   Mostly Cloudy
3:55 AM 39.2 °F 32.5 °F 24.8 °F 56% 29.45 in 10.0 mi WNW 10.4 mph - N/A   Scattered Clouds
4:15 AM 41.0 °F 34.7 °F 26.6 °F 57% 29.45 in 10.0 mi WNW 10.4 mph - N/A   Mostly Cloudy
4:35 AM 42.8 °F 37.0 °F 28.4 °F 57% 29.47 in 10.0 mi WNW 10.4 mph - N/A   Overcast
4:55 AM 46.4 °F 40.1 °F 30.2 °F 53% 29.49 in 10.0 mi WNW 15.0 mph 20.7 mph N/A   Overcast
5:15 AM 46.4 °F 38.3 °F 30.2 °F 53% 29.50 in 10.0 mi NW 23.0 mph - N/A   Scattered Clouds
5:35 AM 50.0 °F - 35.6 °F 58% 29.50 in 10.0 mi NW 28.8 mph 38.0 mph N/A   Clear
5:55 AM 46.4 °F 37.5 °F 35.6 °F 66% 29.52 in 10.0 mi NW 27.6 mph 41.4 mph N/A   Mostly Cloudy
6:15 AM 44.6 °F 34.7 °F 33.8 °F 66% 29.53 in 10.0 mi NNW 29.9 mph 39.1 mph N/A   Overcast
6:35 AM 44.6 °F 34.4 °F 33.8 °F 66% 29.54 in 10.0 mi NNW 32.2 mph 36.8 mph N/A   Overcast
6:55 AM 42.8 °F 33.8 °F 33.8 °F 70% 29.56 in 10.0 mi NNW 21.9 mph 28.8 mph N/A   Overcast
7:15 AM 42.8 °F 33.5 °F 32.0 °F 66% 29.58 in 10.0 mi NNW 23.0 mph 27.6 mph N/A   Overcast
7:35 AM 41.0 °F 31.6 °F 32.0 °F 70% 29.58 in 10.0 mi NW 20.7 mph 25.3 mph N/A   Mostly Cloudy
7:55 AM 41.0 °F 31.6 °F 32.0 °F 70% 29.59 in 10.0 mi NW 20.7 mph 29.9 mph N/A   Scattered Clouds
8:15 AM 41.0 °F 31.9 °F 32.0 °F 70% 29.61 in 10.0 mi NW 19.6 mph - N/A   Mostly Cloudy
8:35 AM 41.0 °F 32.8 °F 32.0 °F 70% 29.63 in 10.0 mi NW 16.1 mph 21.9 mph N/A   Scattered Clouds
8:55 AM 41.0 °F 32.2 °F 32.0 °F 70% 29.63 in 10.0 mi NNW 18.4 mph 21.9 mph N/A   Mostly Cloudy
9:15 AM 41.0 °F 32.5 °F 32.0 °F 70% 29.65 in 10.0 mi NNW 17.3 mph 24.2 mph N/A   Scattered Clouds
9:35 AM 42.8 °F 34.5 °F 32.0 °F 66% 29.66 in 10.0 mi NNW 18.4 mph - N/A   Mostly Cloudy
9:55 AM 42.8 °F 34.3 °F 32.0 °F 66% 29.67 in 10.0 mi NNW 19.6 mph 27.6 mph N/A   Mostly Cloudy
10:15 AM 42.8 °F 35.4 °F 32.0 °F 66% 29.69 in 10.0 mi North 15.0 mph 26.5 mph N/A   Scattered Clouds
10:35 AM 42.8 °F 33.5 °F 32.0 °F 66% 29.70 in 10.0 mi North 23.0 mph 28.8 mph N/A   Clear
10:55 AM 44.6 °F 35.5 °F 32.0 °F 61% 29.71 in 10.0 mi North 25.3 mph 29.9 mph N/A   Scattered Clouds
11:15 AM 44.6 °F 36.4 °F 32.0 °F 61% 29.73 in 10.0 mi NNE 20.7 mph 26.5 mph N/A   Mostly Cloudy
11:35 AM 42.8 °F 34.0 °F 33.8 °F 70% 29.74 in 10.0 mi NNE 20.7 mph 26.5 mph N/A   Overcast
11:55 AM 42.8 °F 34.5 °F 32.0 °F 66% 29.75 in 10.0 mi NNE 18.4 mph 27.6 mph N/A   Overcast
12:15 PM 42.8 °F 34.5 °F 32.0 °F 66% 29.75 in 10.0 mi NNE 18.4 mph 24.2 mph N/A   Overcast
12:35 PM 41.0 °F 33.5 °F 32.0 °F 70% 29.76 in 10.0 mi NNE 13.8 mph - N/A   Overcast
12:55 PM 41.0 °F 33.1 °F 30.2 °F 65% 29.76 in 10.0 mi NNE 15.0 mph - N/A   Overcast
1:15 PM 39.2 °F 30.5 °F 28.4 °F 65% 29.74 in 10.0 mi NE 16.1 mph - N/A   Overcast
1:35 PM 37.4 °F 29.8 °F 26.6 °F 65% 29.75 in 10.0 mi NE 11.5 mph - N/A   Overcast
1:55 PM 39.2 °F 30.8 °F 28.4 °F 65% 29.75 in 10.0 mi ENE 15.0 mph - N/A   Overcast
2:15 PM 37.4 °F 28.9 °F 26.6 °F 65% 29.76 in 10.0 mi ENE 13.8 mph - N/A   Overcast
2:35 PM 37.4 °F 29.8 °F 26.6 °F 65% 29.76 in 10.0 mi ENE 11.5 mph 17.3 mph N/A   Overcast
2:55 PM 35.6 °F 27.1 °F 26.6 °F 70% 29.77 in 10.0 mi ENE 12.7 mph - N/A   Overcast
3:15 PM 35.6 °F 27.5 °F 26.6 °F 70% 29.78 in 10.0 mi ENE 11.5 mph - N/A   Overcast
3:35 PM 35.6 °F 27.5 °F 26.6 °F 70% 29.78 in 10.0 mi East 11.5 mph - N/A   Overcast
3:55 PM 35.6 °F 27.5 °F 24.8 °F 65% 29.79 in 10.0 mi East 11.5 mph - N/A   Overcast
4:15 PM 35.6 °F 27.5 °F 24.8 °F 65% 29.79 in 10.0 mi East 11.5 mph - N/A   Overcast
4:35 PM 33.8 °F 25.8 °F 24.8 °F 70% 29.81 in 10.0 mi East 10.4 mph - N/A   Overcast
4:55 PM 33.8 °F 26.4 °F 24.8 °F 70% 29.82 in 10.0 mi ENE 9.2 mph - N/A   Overcast
5:15 PM 33.8 °F 25.3 °F 24.8 °F 70% 29.82 in 10.0 mi East 11.5 mph - N/A   Overcast
5:35 PM 33.8 °F 26.4 °F 23.0 °F 65% 29.83 in 10.0 mi East 9.2 mph - N/A   Overcast
5:55 PM 32.0 °F 24.2 °F 23.0 °F 69% 29.84 in 10.0 mi East 9.2 mph - N/A   Overcast
6:15 PM 32.0 °F 22.5 °F 23.0 °F 69% 29.84 in 10.0 mi East 12.7 mph - N/A   Overcast
6:35 PM 32.0 °F 22.5 °F 23.0 °F 69% 29.85 in 10.0 mi East 12.7 mph - N/A   Overcast
6:55 PM 32.0 °F 22.5 °F 23.0 °F 69% 29.87 in 10.0 mi East 12.7 mph - N/A   Overcast
7:15 PM 30.2 °F 20.2 °F 26.6 °F 86% 29.87 in 2.5 mi East 12.7 mph - N/A Snow Light Snow
7:35 PM 28.4 °F 19.7 °F 28.4 °F 100% 29.89 in 1.2 mi East 9.2 mph - N/A Snow Light Snow
7:55 PM 28.4 °F 19.7 °F 28.4 °F 100% 29.90 in 1.2 mi East 9.2 mph - N/A Snow Snow
8:15 PM 28.4 °F 19.7 °F 28.4 °F 100% 29.89 in 1.2 mi East 9.2 mph - N/A Snow Light Snow
8:35 PM 28.4 °F 19.7 °F 28.4 °F 100% 29.89 in 1.5 mi East 9.2 mph - N/A Snow Light Snow
8:55 PM 28.4 °F 19.1 °F 28.4 °F 100% 29.87 in 2.0 mi East 10.4 mph - N/A Snow Light Snow
9:15 PM 26.6 °F 15.7 °F 26.6 °F 100% 29.88 in 2.0 mi East 12.7 mph - N/A Snow Light Snow
9:35 PM 26.6 °F 15.2 °F 26.6 °F 100% 29.88 in 3.0 mi ENE 13.8 mph - N/A Snow Light Snow
9:55 PM 26.6 °F 14.3 °F 26.6 °F 100% 29.86 in 2.5 mi East 16.1 mph - N/A Snow Light Snow
10:15 PM 26.6 °F 15.7 °F 26.6 °F 100% 29.86 in 2.5 mi ENE 12.7 mph - N/A Snow Light Snow
10:35 PM 26.6 °F 14.7 °F 26.6 °F 100% 29.86 in 3.0 mi ENE 15.0 mph - N/A Snow Light Snow
10:55 PM 24.8 °F 14.0 °F 24.8 °F 100% 29.86 in 1.5 mi East 11.5 mph - N/A Snow Light Snow
11:15 PM 24.8 °F 12.9 °F 24.8 °F 100% 29.87 in 1.2 mi East 13.8 mph 17.3 mph N/A Snow Light Snow
11:35 PM 24.8 °F 12.4 °F 24.8 °F 100% 29.86 in 1.2 mi ENE 15.0 mph - N/A Snow Snow
11:55 PM 24.8 °F 11.9 °F 24.8 °F 100% 29.86 in 1.2 mi ENE 16.1 mph - N/A Snow Snow